| time (UTC) | temp C | wind direction | speed KPH | gust KPH | rain 1hr cm | rain 24hr cm | rain mn cm | humidity % | barometer mb |
| 20260508044004 | 4 | 229 | 0.0 | 0.0 | 0.00 | 0.20 | 0.00 | 72 | 1006.1 |
| 20260508043504 | 4 | 229 | 0.0 | 0.0 | 0.00 | 0.23 | 0.00 | 67 | 1006.2 |
| 20260508043004 | 5 | 229 | 0.0 | 0.0 | 0.00 | 0.23 | 0.00 | 67 | 1006.1 |
| 20260508042504 | 5 | 229 | 0.0 | 0.0 | 0.00 | 0.23 | 0.00 | 64 | 1006.1 |
| 20260508042005 | 5 | 229 | 0.0 | 0.0 | 0.00 | 0.23 | 0.00 | 64 | 1006.1 |
| 20260508041502 | 5 | 229 | 0.0 | 0.0 | 0.00 | 0.25 | 0.00 | 64 | 1006.1 |
| 20260508041003 | 5 | 229 | 0.0 | 0.0 | 0.00 | 0.25 | 0.00 | 64 | 1006.2 |
| 20260508040503 | 5 | 229 | 0.0 | 0.0 | 0.00 | 0.25 | 0.00 | 64 | 1006.1 |
| 20260508035503 | 5 | 229 | 0.0 | 0.0 | 0.00 | 0.33 | 0.30 | 63 | 1006.2 |
| 20260508035002 | 5 | 229 | 0.0 | 0.0 | 0.00 | 0.38 | 0.30 | 63 | 1006.2 |
| 20260508034503 | 5 | 229 | 0.0 | 0.0 | 0.00 | 0.41 | 0.30 | 65 | 1006.2 |
| 20260508034002 | 6 | 229 | 0.0 | 0.0 | 0.00 | 0.43 | 0.30 | 60 | 1006.2 |
| 20260508033003 | 6 | 229 | 0.0 | 0.0 | 0.00 | 0.56 | 0.30 | 58 | 1006.3 |
| 20260508032502 | 6 | 229 | 0.0 | 1.6 | 0.00 | 0.56 | 0.30 | 58 | 1006.2 |
| 20260508032003 | 6 | 229 | 1.6 | 4.8 | 0.00 | 0.58 | 0.30 | 56 | 1006.1 |
| 20260508031002 | 6 | 228 | 1.6 | 11.3 | 0.00 | 0.61 | 0.30 | 58 | 1006.1 |
| 20260508030503 | 6 | 227 | 0.0 | 4.8 | 0.00 | 0.61 | 0.30 | 58 | 1006.1 |
| 20260508025503 | 6 | 227 | 4.8 | 11.3 | 0.00 | 0.64 | 0.30 | 60 | 1005.9 |
| 20260508023503 | 6 | 235 | 1.6 | 11.3 | 0.00 | 0.66 | 0.30 | 57 | 1006.1 |
| 20260508022502 | 6 | 301 | 1.6 | 4.8 | 0.00 | 0.69 | 0.30 | 58 | 1006.1 |
| 20260508022003 | 6 | 339 | 0.0 | 0.0 | 0.00 | 0.69 | 0.30 | 59 | 1006.1 |
| 20260508021502 | 6 | 340 | 0.0 | 0.0 | 0.00 | 0.71 | 0.30 | 58 | 1006.1 |
| 20260508021003 | 6 | 340 | 0.0 | 0.0 | 0.00 | 0.71 | 0.30 | 58 | 1006.1 |
| 20260508020503 | 6 | 340 | 0.0 | 0.0 | 0.00 | 0.71 | 0.30 | 58 | 1006.1 |
| 20260508020002 | 6 | 340 | 0.0 | 0.0 | 0.00 | 0.71 | 0.30 | 58 | 1006.0 |
| 20260508015503 | 6 | 340 | 0.0 | 0.0 | 0.00 | 0.71 | 0.30 | 59 | 1006.1 |
| 20260508015003 | 6 | 340 | 0.0 | 0.0 | 0.00 | 0.71 | 0.30 | 59 | 1006.2 |
| 20260508014503 | 6 | 340 | 0.0 | 0.0 | 0.00 | 0.71 | 0.30 | 59 | 1006.3 |
| 20260508014002 | 6 | 340 | 0.0 | 0.0 | 0.00 | 0.74 | 0.30 | 59 | 1006.3 |
| 20260508013503 | 6 | 340 | 0.0 | 4.8 | 0.00 | 0.74 | 0.30 | 60 | 1006.3 |
| 20260508013003 | 6 | 344 | 1.6 | 4.8 | 0.00 | 0.74 | 0.30 | 60 | 1006.3 |
| 20260508012503 | 6 | 355 | 0.0 | 1.6 | 0.00 | 0.74 | 0.30 | 60 | 1006.2 |
| 20260508012003 | 6 | 349 | 1.6 | 9.7 | 0.00 | 0.74 | 0.30 | 60 | 1006.1 |
| 20260508011503 | 6 | 336 | 0.0 | 0.0 | 0.00 | 0.74 | 0.30 | 59 | 1006.1 |
| 20260508011003 | 7 | 336 | 0.0 | 0.0 | 0.00 | 0.74 | 0.30 | 56 | 1006.1 |
| 20260508010502 | 7 | 336 | 0.0 | 0.0 | 0.00 | 0.74 | 0.30 | 55 | 1006.1 |
| 20260508010003 | 7 | 336 | 0.0 | 0.0 | 0.00 | 0.74 | 0.30 | 54 | 1006.0 |
| 20260508005002 | 7 | 336 | 0.0 | 0.0 | 0.00 | 0.74 | 0.30 | 51 | 1005.9 |
| 20260508004503 | 7 | 336 | 0.0 | 8.0 | 0.00 | 0.74 | 0.30 | 53 | 1005.8 |
| 20260508003503 | 8 | 304 | 3.2 | 4.8 | 0.00 | 0.74 | 0.30 | 55 | 1005.6 |
| 20260508003003 | 8 | 303 | 1.6 | 4.8 | 0.00 | 0.74 | 0.30 | 52 | 1005.4 |
| 20260508002003 | 9 | 303 | 1.6 | 9.7 | 0.00 | 0.74 | 0.30 | 48 | 1005.3 |
| 20260508001503 | 9 | 239 | 1.6 | 12.9 | 0.00 | 0.74 | 0.30 | 46 | 1005.3 |
| 20260508001002 | 9 | 355 | 3.2 | 12.9 | 0.00 | 0.74 | 0.30 | 47 | 1005.2 |
| 20260508000503 | 9 | 318 | 1.6 | 9.7 | 0.00 | 0.74 | 0.30 | 47 | 1005.1 |
| 20260508000003 | 9 | 333 | 1.6 | 4.8 | 0.00 | 0.76 | 0.30 | 48 | 1005.1 |
| 20260507235003 | 10 | 333 | 0.0 | 9.7 | 0.00 | 0.76 | 0.30 | 47 | 1005.1 |
| 20260507234503 | 10 | 332 | 1.6 | 14.5 | 0.00 | 0.76 | 0.30 | 47 | 1005.1 |
| 20260507234003 | 10 | 250 | 1.6 | 9.7 | 0.00 | 0.76 | 0.30 | 46 | 1005.0 |
| 20260507233503 | 10 | 313 | 1.6 | 9.7 | 0.00 | 0.76 | 0.30 | 46 | 1004.9 |
| 20260507233003 | 10 | 339 | 1.6 | 11.3 | 0.00 | 0.76 | 0.30 | 46 | 1004.8 |
| 20260507232503 | 10 | 321 | 3.2 | 12.9 | 0.00 | 0.76 | 0.30 | 46 | 1004.7 |
| 20260507232003 | 11 | 1 | 4.8 | 14.5 | 0.00 | 0.76 | 0.30 | 47 | 1004.7 |
| 20260507231503 | 11 | 340 | 3.2 | 8.0 | 0.00 | 0.76 | 0.30 | 45 | 1004.7 |
| 20260507231003 | 11 | 5 | 3.2 | 14.5 | 0.00 | 0.76 | 0.30 | 45 | 1004.5 |
| 20260507230003 | 11 | 333 | 1.6 | 12.9 | 0.00 | 0.76 | 0.30 | 45 | 1004.3 |
| 20260507225503 | 11 | 338 | 4.8 | 19.3 | 0.00 | 0.76 | 0.30 | 45 | 1004.3 |
| 20260507225003 | 11 | 322 | 1.6 | 11.3 | 0.00 | 0.76 | 0.30 | 47 | 1004.2 |
| 20260507224504 | 11 | 341 | 0.0 | 9.7 | 0.00 | 0.76 | 0.30 | 45 | 1004.1 |
| 20260507224003 | 12 | 325 | 1.6 | 4.8 | 0.00 | 0.76 | 0.30 | 45 | 1004.1 |
| 20260507223503 | 12 | 303 | 1.6 | 14.5 | 0.00 | 0.76 | 0.30 | 44 | 1004.0 |
| 20260507222503 | 13 | 357 | 4.8 | 12.9 | 0.00 | 0.76 | 0.30 | 43 | 1003.9 |
| 20260507222003 | 13 | 10 | 0.0 | 1.6 | 0.00 | 0.76 | 0.30 | 42 | 1003.9 |
| 20260507221503 | 13 | 338 | 0.0 | 4.8 | 0.00 | 0.79 | 0.30 | 41 | 1003.8 |
| 20260507221002 | 14 | 332 | 1.6 | 11.3 | 0.00 | 0.79 | 0.30 | 41 | 1003.7 |
| 20260507220503 | 14 | 349 | 6.4 | 14.5 | 0.00 | 0.79 | 0.30 | 40 | 1003.7 |
| 20260507220003 | 15 | 0 | 1.6 | 12.9 | 0.00 | 0.79 | 0.30 | 39 | 1003.6 |
| 20260507215503 | 15 | 342 | 3.2 | 12.9 | 0.00 | 0.81 | 0.30 | 41 | 1003.7 |
| 20260507215003 | 15 | 317 | 0.0 | 9.7 | 0.00 | 0.81 | 0.30 | 41 | 1003.6 |
| 20260507214503 | 15 | 10 | 1.6 | 9.7 | 0.00 | 0.81 | 0.30 | 42 | 1003.6 |
| 20260507214003 | 15 | 5 | 0.0 | 1.6 | 0.00 | 0.84 | 0.30 | 41 | 1003.5 |
| 20260507213503 | 15 | 10 | 1.6 | 9.7 | 0.00 | 0.84 | 0.30 | 43 | 1003.5 |
| 20260507213004 | 15 | 304 | 1.6 | 9.7 | 0.00 | 0.84 | 0.30 | 42 | 1003.4 |
| 20260507212503 | 15 | 344 | 4.8 | 19.3 | 0.00 | 0.84 | 0.30 | 43 | 1003.3 |
| 20260507212004 | 14 | 275 | 0.0 | 4.8 | 0.00 | 0.86 | 0.30 | 43 | 1003.2 |
| 20260507211503 | 14 | 350 | 1.6 | 8.0 | 0.00 | 0.86 | 0.30 | 43 | 1003.1 |
| 20260507210503 | 14 | 333 | 0.0 | 0.0 | 0.00 | 0.91 | 0.30 | 40 | 1002.9 |
| 20260507210003 | 15 | 5 | 3.2 | 9.7 | 0.00 | 0.91 | 0.30 | 41 | 1002.9 |
| 20260507205503 | 15 | 229 | 0.0 | 11.3 | 0.00 | 0.94 | 0.30 | 38 | 1002.7 |
| 20260507205003 | 15 | 231 | 8.0 | 20.9 | 0.00 | 0.94 | 0.30 | 38 | 1002.7 |
| 20260507204503 | 15 | 231 | 12.9 | 25.7 | 0.00 | 0.97 | 0.30 | 38 | 1002.6 |
| 20260507204003 | 14 | 208 | 9.7 | 25.7 | 0.00 | 0.97 | 0.30 | 39 | 1002.5 |
| 20260507203503 | 13 | 285 | 1.6 | 19.3 | 0.00 | 0.97 | 0.30 | 38 | 1002.5 |
| 20260507203003 | 14 | 238 | 1.6 | 12.9 | 0.00 | 0.97 | 0.30 | 39 | 1002.5 |
| 20260507202004 | 14 | 245 | 1.6 | 8.0 | 0.00 | 0.99 | 0.30 | 42 | 1002.3 |
| 20260507201503 | 14 | 240 | 0.0 | 0.0 | 0.00 | 0.99 | 0.30 | 41 | 1002.3 |
| 20260507200503 | 15 | 240 | 0.0 | 0.0 | 0.00 | 0.99 | 0.30 | 40 | 1002.3 |
| 20260507200003 | 15 | 240 | 1.6 | 16.1 | 0.00 | 1.02 | 0.30 | 40 | 1002.3 |
| 20260507195503 | 15 | 230 | 4.8 | 19.3 | 0.00 | 1.04 | 0.30 | 39 | 1002.3 |
| 20260507194003 | 16 | 255 | 4.8 | 19.3 | 0.00 | 1.07 | 0.30 | 39 | 1002.4 |
| 20260507193503 | 16 | 263 | 0.0 | 9.7 | 0.00 | 1.09 | 0.30 | 40 | 1002.3 |
| 20260507192003 | 15 | 236 | 0.0 | 9.7 | 0.00 | 1.19 | 0.30 | 46 | 1002.4 |
| 20260507191503 | 14 | 229 | 4.8 | 20.9 | 0.00 | 1.22 | 0.30 | 44 | 1002.4 |
| 20260507191003 | 14 | 212 | 4.8 | 25.7 | 0.00 | 1.30 | 0.30 | 44 | 1002.4 |
| 20260507190004 | 14 | 221 | 1.6 | 19.3 | 0.00 | 1.37 | 0.30 | 43 | 1002.5 |
| 20260507185503 | 15 | 313 | 3.2 | 22.5 | 0.00 | 1.40 | 0.30 | 45 | 1002.6 |
| 20260507185003 | 14 | 232 | 3.2 | 20.9 | 0.00 | 1.45 | 0.30 | 48 | 1002.5 |
| 20260507184003 | 14 | 217 | 1.6 | 12.9 | 0.00 | 1.50 | 0.30 | 51 | 1002.6 |
| 20260507183504 | 15 | 240 | 9.7 | 24.1 | 0.00 | 1.50 | 0.30 | 48 | 1002.6 |
| 20260507183003 | 16 | 262 | 1.6 | 19.3 | 0.00 | 1.52 | 0.30 | 47 | 1002.6 |
| 20260507182503 | 16 | 268 | 1.6 | 11.3 | 0.00 | 1.52 | 0.30 | 48 | 1002.6 |
| 20260507182003 | 16 | 263 | 6.4 | 25.7 | 0.00 | 1.55 | 0.30 | 48 | 1002.6 |
| 20260507181503 | 15 | 255 | 0.0 | 1.6 | 0.00 | 1.55 | 0.30 | 51 | 1002.7 |
| 20260507181004 | 16 | 272 | 0.0 | 14.5 | 0.00 | 1.57 | 0.30 | 52 | 1002.7 |
| 20260507180503 | 16 | 258 | 11.3 | 24.1 | 0.00 | 1.57 | 0.30 | 48 | 1002.7 |
| 20260507180004 | 15 | 273 | 3.2 | 12.9 | 0.00 | 1.57 | 0.30 | 52 | 1002.7 |
| 20260507174503 | 15 | 225 | 9.7 | 16.1 | 0.00 | 1.60 | 0.30 | 49 | 1002.7 |
| 20260507174003 | 16 | 235 | 3.2 | 19.3 | 0.00 | 1.60 | 0.30 | 48 | 1002.7 |
| 20260507173503 | 16 | 242 | 6.4 | 19.3 | 0.00 | 1.60 | 0.30 | 49 | 1002.7 |
| 20260507173004 | 16 | 237 | 1.6 | 12.9 | 0.00 | 1.60 | 0.30 | 50 | 1002.7 |
| 20260507172503 | 15 | 235 | 0.0 | 12.9 | 0.00 | 1.60 | 0.30 | 52 | 1002.8 |
| 20260507172004 | 15 | 295 | 1.6 | 16.1 | 0.00 | 1.60 | 0.30 | 55 | 1002.7 |
| 20260507171504 | 14 | 220 | 6.4 | 14.5 | 0.00 | 1.60 | 0.30 | 54 | 1002.8 |
| 20260507171003 | 14 | 241 | 1.6 | 8.0 | 0.00 | 1.60 | 0.30 | 54 | 1002.9 |
| 20260507170504 | 14 | 219 | 1.6 | 8.0 | 0.00 | 1.60 | 0.30 | 52 | 1003.0 |
| 20260507170003 | 15 | 233 | 1.6 | 8.0 | 0.00 | 1.60 | 0.30 | 51 | 1003.1 |
| 20260507165003 | 15 | 244 | 0.0 | 16.1 | 0.00 | 1.60 | 0.30 | 55 | 1003.1 |
| 20260507164503 | 15 | 234 | 1.6 | 4.8 | 0.00 | 1.60 | 0.30 | 52 | 1003.1 |
| 20260507164004 | 15 | 227 | 1.6 | 11.3 | 0.00 | 1.60 | 0.30 | 53 | 1003.2 |
| 20260507163503 | 15 | 254 | 3.2 | 12.9 | 0.00 | 1.60 | 0.30 | 57 | 1003.3 |
| 20260507163004 | 14 | 231 | 3.2 | 12.9 | 0.00 | 1.60 | 0.30 | 57 | 1003.3 |
| 20260507162504 | 14 | 296 | 1.6 | 4.8 | 0.00 | 1.60 | 0.30 | 57 | 1003.3 |
| 20260507161503 | 14 | 296 | 0.0 | 8.0 | 0.00 | 1.63 | 0.30 | 60 | 1003.4 |
| 20260507161003 | 13 | 309 | 0.0 | 1.6 | 0.00 | 1.63 | 0.30 | 63 | 1003.4 |
| 20260507160503 | 13 | 308 | 0.0 | 0.0 | 0.00 | 1.63 | 0.30 | 64 | 1003.5 |
| 20260507160003 | 13 | 308 | 0.0 | 3.2 | 0.00 | 1.63 | 0.30 | 63 | 1003.7 |
| 20260507155503 | 13 | 301 | 0.0 | 0.0 | 0.00 | 1.63 | 0.30 | 63 | 1003.7 |
| 20260507155003 | 13 | 355 | 0.0 | 0.0 | 0.00 | 1.63 | 0.30 | 64 | 1003.8 |
| 20260507154503 | 13 | 355 | 0.0 | 4.8 | 0.00 | 1.63 | 0.30 | 63 | 1003.9 |
| 20260507154004 | 13 | 321 | 0.0 | 0.0 | 0.00 | 1.63 | 0.30 | 62 | 1003.8 |
| 20260507153504 | 13 | 228 | 0.0 | 0.0 | 0.00 | 1.63 | 0.30 | 60 | 1003.8 |
| 20260507153003 | 14 | 227 | 0.0 | 0.0 | 0.00 | 1.63 | 0.30 | 60 | 1003.8 |
| 20260507152503 | 14 | 227 | 0.0 | 0.0 | 0.00 | 1.63 | 0.30 | 58 | 1003.7 |
| 20260507152003 | 14 | 229 | 0.0 | 4.8 | 0.00 | 1.63 | 0.30 | 60 | 1003.7 |
| 20260507151004 | 13 | 229 | 0.0 | 9.7 | 0.00 | 1.63 | 0.30 | 59 | 1003.8 |
| 20260507150503 | 13 | 248 | 3.2 | 11.3 | 0.00 | 1.63 | 0.30 | 59 | 1003.9 |
| 20260507150003 | 13 | 269 | 0.0 | 4.8 | 0.00 | 1.63 | 0.30 | 62 | 1003.9 |
| 20260507145503 | 13 | 269 | 1.6 | 11.3 | 0.00 | 1.63 | 0.30 | 63 | 1004.0 |
| 20260507145003 | 13 | 238 | 4.8 | 14.5 | 0.00 | 1.63 | 0.30 | 59 | 1004.0 |
| 20260507144503 | 13 | 232 | 0.0 | 1.6 | 0.00 | 1.63 | 0.30 | 65 | 1004.0 |
| 20260507144005 | 13 | 231 | 1.6 | 4.8 | 0.00 | 1.63 | 0.30 | 62 | 1004.1 |
| 20260507143504 | 13 | 230 | 0.0 | 8.0 | 0.00 | 1.63 | 0.30 | 63 | 1004.1 |
| 20260507142503 | 13 | 212 | 1.6 | 8.0 | 0.00 | 1.63 | 0.30 | 65 | 1004.2 |
| 20260507142003 | 13 | 286 | 0.0 | 3.2 | 0.00 | 1.63 | 0.30 | 67 | 1004.3 |
| 20260507141504 | 12 | 286 | 0.0 | 4.8 | 0.00 | 1.63 | 0.30 | 67 | 1004.3 |
| 20260507141003 | 12 | 291 | 0.0 | 1.6 | 0.00 | 1.63 | 0.30 | 67 | 1004.4 |
| 20260507140504 | 12 | 279 | 0.0 | 8.0 | 0.00 | 1.63 | 0.30 | 71 | 1004.4 |
| 20260507135504 | 11 | 266 | 0.0 | 4.8 | 0.00 | 1.63 | 0.30 | 71 | 1004.5 |
| 20260507135005 | 11 | 236 | 0.0 | 4.8 | 0.00 | 1.63 | 0.30 | 70 | 1004.6 |
| 20260507134503 | 11 | 287 | 0.0 | 9.7 | 0.00 | 1.63 | 0.30 | 72 | 1004.7 |
| 20260507134004 | 11 | 247 | 1.6 | 4.8 | 0.00 | 1.63 | 0.30 | 73 | 1004.6 |
| 20260507133004 | 10 | 269 | 0.0 | 4.8 | 0.00 | 1.63 | 0.30 | 76 | 1004.5 |
| 20260507132003 | 10 | 275 | 0.0 | 0.0 | 0.00 | 1.63 | 0.30 | 79 | 1004.6 |
| 20260507131504 | 9 | 275 | 0.0 | 0.0 | 0.00 | 1.63 | 0.30 | 80 | 1004.6 |
| 20260507131003 | 9 | 246 | 0.0 | 0.0 | 0.00 | 1.63 | 0.30 | 80 | 1004.6 |
| 20260507130504 | 9 | 242 | 0.0 | 11.3 | 0.00 | 1.63 | 0.30 | 81 | 1004.7 |
| 20260507130004 | 9 | 293 | 0.0 | 3.2 | 0.00 | 1.63 | 0.30 | 82 | 1004.7 |
| 20260507125504 | 9 | 257 | 0.0 | 0.0 | 0.00 | 1.63 | 0.30 | 82 | 1004.6 |
| 20260507125004 | 8 | 252 | 0.0 | 3.2 | 0.00 | 1.63 | 0.30 | 84 | 1004.7 |
| 20260507124003 | 8 | 247 | 0.0 | 8.0 | 0.00 | 1.63 | 0.30 | 85 | 1004.9 |
| 20260507123003 | 8 | 274 | 0.0 | 4.8 | 0.00 | 1.63 | 0.30 | 88 | 1004.8 |
| 20260507122503 | 8 | 306 | 0.0 | 9.7 | 0.00 | 1.63 | 0.30 | 88 | 1004.9 |
| 20260507122004 | 8 | 321 | 0.0 | 8.0 | 0.00 | 1.63 | 0.30 | 89 | 1004.8 |
| 20260507121503 | 7 | 252 | 0.0 | 3.2 | 0.00 | 1.63 | 0.30 | 89 | 1004.8 |
| 20260507121004 | 7 | 241 | 0.0 | 4.8 | 0.00 | 1.63 | 0.30 | 90 | 1004.8 |
| 20260507120504 | 7 | 247 | 1.6 | 4.8 | 0.00 | 1.63 | 0.30 | 91 | 1005.0 |
| 20260507115505 | 7 | 250 | 0.0 | 4.8 | 0.00 | 1.63 | 0.30 | 91 | 1005.3 |
| 20260507115004 | 7 | 299 | 0.0 | 0.0 | 0.00 | 1.63 | 0.30 | 91 | 1005.3 |
| 20260507114504 | 7 | 299 | 0.0 | 0.0 | 0.00 | 1.63 | 0.30 | 93 | 1005.3 |
| 20260507114004 | 7 | 298 | 0.0 | 0.0 | 0.00 | 1.63 | 0.30 | 93 | 1005.3 |
| 20260507113504 | 7 | 298 | 0.0 | 0.0 | 0.00 | 1.63 | 0.30 | 95 | 1005.1 |
| 20260507113004 | 6 | 298 | 0.0 | 0.0 | 0.00 | 1.63 | 0.30 | 95 | 1005.0 |
| 20260507112504 | 6 | 298 | 0.0 | 0.0 | 0.00 | 1.63 | 0.30 | 95 | 1005.1 |
| 20260507112004 | 6 | 298 | 0.0 | 0.0 | 0.00 | 1.63 | 0.30 | 95 | 1005.2 |
| 20260507111504 | 6 | 298 | 0.0 | 0.0 | 0.00 | 1.63 | 0.30 | 95 | 1005.3 |
| 20260507111004 | 6 | 298 | 0.0 | 9.7 | 0.00 | 1.63 | 0.30 | 96 | 1005.4 |
| 20260507110504 | 6 | 265 | 0.0 | 8.0 | 0.00 | 1.63 | 0.30 | 95 | 1005.4 |
| 20260507110004 | 6 | 293 | 0.0 | 8.0 | 0.00 | 1.63 | 0.30 | 95 | 1005.2 |
| 20260507105504 | 6 | 292 | 0.0 | 0.0 | 0.00 | 1.63 | 0.30 | 96 | 1005.2 |
| 20260507105004 | 6 | 292 | 0.0 | 0.0 | 0.00 | 1.63 | 0.30 | 96 | 1005.0 |
| 20260507104504 | 6 | 292 | 0.0 | 0.0 | 0.00 | 1.63 | 0.30 | 97 | 1005.1 |
| 20260507104004 | 6 | 292 | 0.0 | 0.0 | 0.00 | 1.63 | 0.30 | 97 | 1005.2 |
| 20260507103504 | 6 | 292 | 0.0 | 0.0 | 0.00 | 1.63 | 0.30 | 97 | 1005.2 |
| 20260507103003 | 6 | 292 | 0.0 | 0.0 | 0.00 | 1.63 | 0.30 | 97 | 1005.2 |
| 20260507102504 | 6 | 292 | 0.0 | 0.0 | 0.00 | 1.63 | 0.30 | 97 | 1005.1 |
| 20260507102003 | 6 | 292 | 0.0 | 0.0 | 0.00 | 1.63 | 0.30 | 97 | 1005.0 |
| 20260507101504 | 6 | 292 | 0.0 | 0.0 | 0.00 | 1.63 | 0.30 | 97 | 1004.9 |
| 20260507101004 | 6 | 292 | 0.0 | 0.0 | 0.00 | 1.63 | 0.30 | 97 | 1004.9 |
| 20260507100004 | 6 | 292 | 0.0 | 0.0 | 0.00 | 1.63 | 0.30 | 97 | 1004.5 |
| 20260507095503 | 6 | 292 | 0.0 | 0.0 | 0.00 | 1.63 | 0.30 | 97 | 1004.6 |
| 20260507095004 | 6 | 292 | 0.0 | 0.0 | 0.00 | 1.63 | 0.30 | 97 | 1004.7 |
| 20260507094504 | 6 | 293 | 0.0 | 0.0 | 0.00 | 1.63 | 0.30 | 98 | 1004.6 |
| 20260507094004 | 6 | 293 | 0.0 | 0.0 | 0.00 | 1.63 | 0.30 | 98 | 1004.6 |
| 20260507093504 | 6 | 346 | 0.0 | 0.0 | 0.00 | 1.63 | 0.30 | 98 | 1004.5 |
| 20260507092504 | 6 | 346 | 0.0 | 0.0 | 0.00 | 1.63 | 0.30 | 98 | 1004.6 |
| 20260507092004 | 6 | 346 | 0.0 | 0.0 | 0.00 | 1.63 | 0.30 | 98 | 1004.7 |
| 20260507091004 | 6 | 346 | 0.0 | 0.0 | 0.00 | 1.63 | 0.30 | 98 | 1004.9 |
| 20260507090504 | 6 | 346 | 0.0 | 0.0 | 0.00 | 1.63 | 0.30 | 98 | 1004.9 |
| 20260507090005 | 6 | 346 | 0.0 | 0.0 | 0.00 | 1.63 | 0.30 | 98 | 1004.9 |
| 20260507085503 | 6 | 346 | 0.0 | 0.0 | 0.00 | 1.63 | 0.30 | 98 | 1005.0 |
| 20260507085004 | 6 | 346 | 0.0 | 0.0 | 0.00 | 1.63 | 0.30 | 98 | 1004.7 |
| 20260507084504 | 6 | 346 | 0.0 | 0.0 | 0.00 | 1.63 | 0.30 | 98 | 1004.3 |
| 20260507084004 | 6 | 346 | 0.0 | 0.0 | 0.00 | 1.63 | 0.30 | 98 | 1004.1 |
| 20260507083504 | 6 | 346 | 0.0 | 0.0 | 0.00 | 1.63 | 0.30 | 98 | 1004.2 |
| 20260507083004 | 6 | 346 | 0.0 | 0.0 | 0.00 | 1.63 | 0.30 | 98 | 1004.2 |
| 20260507082504 | 7 | 346 | 0.0 | 0.0 | 0.00 | 1.63 | 0.30 | 98 | 1004.1 |
| 20260507082003 | 7 | 346 | 0.0 | 0.0 | 0.00 | 1.63 | 0.30 | 98 | 1004.4 |
| 20260507081503 | 7 | 346 | 0.0 | 0.0 | 0.00 | 1.63 | 0.30 | 98 | 1004.6 |
| 20260507081004 | 7 | 346 | 0.0 | 0.0 | 0.00 | 1.63 | 0.30 | 98 | 1004.7 |
| 20260507080504 | 7 | 349 | 0.0 | 0.0 | 0.00 | 1.63 | 0.30 | 98 | 1004.7 |
| 20260507080004 | 7 | 350 | 0.0 | 0.0 | 0.00 | 1.63 | 0.30 | 98 | 1004.7 |
| 20260507075504 | 7 | 353 | 0.0 | 0.0 | 0.00 | 1.63 | 0.30 | 98 | 1004.6 |
| 20260507075004 | 7 | 353 | 0.0 | 0.0 | 0.00 | 1.63 | 0.30 | 98 | 1004.8 |
| 20260507074004 | 7 | 355 | 0.0 | 0.0 | 0.00 | 1.63 | 0.30 | 98 | 1004.8 |
| 20260507073004 | 7 | 353 | 0.0 | 0.0 | 0.00 | 1.63 | 0.30 | 98 | 1004.5 |
| 20260507072504 | 7 | 355 | 0.0 | 0.0 | 0.00 | 1.63 | 0.30 | 98 | 1004.4 |
| 20260507072004 | 7 | 355 | 0.0 | 0.0 | 0.00 | 1.63 | 0.30 | 98 | 1004.4 |
| 20260507070504 | 7 | 355 | 0.0 | 0.0 | 0.00 | 1.63 | 0.30 | 98 | 1004.4 |
| 20260507070008 | 7 | 355 | 0.0 | 0.0 | 0.00 | 1.63 | 0.30 | 98 | 1004.2 |
| 20260507065004 | 7 | 355 | 0.0 | 0.0 | 0.00 | 1.63 | 0.30 | 98 | 1003.9 |
| 20260507064504 | 7 | 355 | 0.0 | 0.0 | 0.00 | 1.63 | 0.30 | 98 | 1003.8 |
| 20260507063504 | 8 | 355 | 0.0 | 0.0 | 0.00 | 1.63 | 0.30 | 98 | 1004.0 |
| 20260507063004 | 7 | 355 | 0.0 | 0.0 | 0.00 | 1.63 | 0.30 | 98 | 1004.0 |
| 20260507062504 | 7 | 355 | 0.0 | 0.0 | 0.00 | 1.63 | 0.30 | 98 | 1004.0 |
| 20260507062005 | 7 | 355 | 0.0 | 0.0 | 0.03 | 1.63 | 0.30 | 98 | 1004.0 |
| 20260507061503 | 7 | 355 | 0.0 | 0.0 | 0.05 | 1.63 | 0.30 | 98 | 1004.0 |
| 20260507061004 | 8 | 355 | 0.0 | 0.0 | 0.08 | 1.63 | 0.30 | 98 | 1004.0 |
| 20260507060504 | 8 | 355 | 0.0 | 0.0 | 0.08 | 1.63 | 0.30 | 98 | 1003.7 |
| 20260507060004 | 8 | 355 | 0.0 | 0.0 | 0.10 | 1.63 | 0.30 | 98 | 1003.5 |
| 20260507055504 | 8 | 355 | 0.0 | 0.0 | 0.15 | 1.63 | 0.30 | 98 | 1003.7 |
| 20260507055004 | 8 | 355 | 0.0 | 0.0 | 0.18 | 1.63 | 0.30 | 98 | 1003.6 |
| 20260507054505 | 8 | 355 | 0.0 | 0.0 | 0.18 | 1.63 | 0.30 | 98 | 1003.5 |
| 20260507054004 | 8 | 355 | 0.0 | 0.0 | 0.20 | 1.63 | 0.30 | 98 | 1003.9 |
| 20260507053504 | 8 | 355 | 0.0 | 0.0 | 0.23 | 1.63 | 0.30 | 98 | 1003.9 |
| 20260507053004 | 8 | 355 | 0.0 | 0.0 | 0.23 | 1.63 | 0.30 | 98 | 1003.8 |
| 20260507052504 | 8 | 355 | 0.0 | 0.0 | 0.23 | 1.63 | 0.30 | 98 | 1003.7 |
| 20260507052004 | 8 | 355 | 0.0 | 0.0 | 0.20 | 1.60 | 0.28 | 98 | 1004.1 |
| 20260507051504 | 8 | 355 | 0.0 | 0.0 | 0.20 | 1.57 | 0.25 | 98 | 1004.1 |
| 20260507051004 | 8 | 355 | 0.0 | 0.0 | 0.18 | 1.55 | 0.23 | 98 | 1003.8 |
| 20260507050505 | 9 | 355 | 0.0 | 0.0 | 0.18 | 1.55 | 0.23 | 98 | 1003.6 |
| 20260507050004 | 9 | 355 | 0.0 | 0.0 | 0.20 | 1.52 | 0.20 | 98 | 1003.8 |
| 20260507045504 | 9 | 355 | 0.0 | 0.0 | 0.20 | 1.47 | 0.15 | 98 | 1004.1 |
| 20260507045004 | 9 | 355 | 0.0 | 0.0 | 0.20 | 1.45 | 0.13 | 98 | 1004.1 |
| 20260507044504 | 9 | 355 | 0.0 | 0.0 | 0.23 | 1.45 | 0.13 | 98 | 1004.2 |